sat.trackr.live / text

‹ back to catalog

STARLINK-35898

NORAD 66826 · 2025-280F

PAYLOAD ACTIVE UNKNOWN

§ Identity

Operator
Country
US
Launch date
2025-12-02
Launch site
AFWTR
Launch vehicle
Mass (kg)
RCS (m²)

Purposes: comms

External: N2YO · Heavens-Above · Gunter

§ Orbital elements

Epoch: 2026-05-25T03:42:34.977600Z

Period
96.11 min
Inclination
70.0007°
Eccentricity
0.0004512
Mean motion
14.98340317 rev/d
Perigee alt
568.9 km
Apogee alt
575.2 km
Semi-major
6,950.2 km
B*
1.4061e-4
RAAN
141.5000°
Arg perigee
262.4210°
Mean anomaly
97.6437°
Rev number
2,753

§ Raw data

STARLINK-358981 66826U 25280F   26145.15457150  .00001586  00000+0  14061-3 0  99952 66826  70.0007 141.5000 0004512 262.4210  97.6437 14.98340317 27537

JSON: /api/v1/satellites/66826 · /tle

For live sub-satellite position, see the globe view (requires WebGL).

§ Visibility from observer

Set your observer location to see the next 7 days of passes ≥ 10°. The values pass through the URL so the page stays shareable.

No JS? Fill the form by hand. The geolocation button needs JavaScript.